This is the latest recevied weather packets stored in our database for station/object KG2V. If no packets are shown the sender has not sent any weather packets the latest 10 day(s).
| Time | Temp. | Humidity | Pressure | Rain* | Wind** | Luminosity | Snow |
|---|---|---|---|---|---|---|---|
| 1777437269 | 11.11° C | 88% | 1008.9 hPa | 0 mm | - | 0 W/m² | - |
| 1777436966 | 11.67° C | 87% | 1009.1 hPa | 0 mm | - | 0 W/m² | - |
| 1777436662 | 11.67° C | 87% | 1009 hPa | 0 mm | - | 0 W/m² | - |
| 1777436359 | 11.67° C | 87% | 1009.1 hPa | 0 mm | - | 0 W/m² | - |
| 1777436054 | 12.22° C | 86% | 1009.1 hPa | 0 mm | - | 0 W/m² | - |
| 1777435751 | 12.22° C | 85% | 1008.9 hPa | 0 mm | - | 0 W/m² | - |
| 1777435447 | 12.22° C | 85% | 1008.7 hPa | 0 mm | - | 0 W/m² | - |
| 1777435143 | 12.22° C | 85% | 1008.9 hPa | 0 mm | - | 0 W/m² | - |
| 1777434838 | 12.22° C | 85% | 1008.9 hPa | 0 mm | - | 0 W/m² | - |
| 1777434537 | 12.22° C | 85% | 1009 hPa | 0 mm | - | 0 W/m² | - |
| 1777434234 | 12.22° C | 84% | 1008.7 hPa | 0 mm | - | 0 W/m² | - |
| 1777433931 | 12.78° C | 84% | 1009 hPa | 0 mm | - | 0 W/m² | - |
| 1777433628 | 12.78° C | 84% | 1008.8 hPa | 0 mm | - | 0 W/m² | - |
| 1777433324 | 12.78° C | 84% | 1008.9 hPa | 0 mm | - | 0 W/m² | - |
| 1777433020 | 12.22° C | 84% | 1008.7 hPa | 0 mm | - | 0 W/m² | - |
| 1777432715 | 12.78° C | 84% | 1008.8 hPa | 0 mm | - | 0 W/m² | - |
| 1777432411 | 12.78° C | 84% | 1008.9 hPa | 0 mm | - | 0 W/m² | - |
| 1777432106 | 12.78° C | 84% | 1008.8 hPa | 0 mm | - | 0 W/m² | - |
| 1777431801 | 12.78° C | 83% | 1008.9 hPa | 0 mm | - | 0 W/m² | - |
| 1777431498 | 12.78° C | 83% | 1008.8 hPa | 0 mm | - | 0 W/m² | - |
| 1777429679 | 12.78° C | 82% | 1009.3 hPa | 0 mm | - | 0 W/m² | - |
| 1777429070 | 12.78° C | 82% | 1009 hPa | 0 mm | - | 0 W/m² | - |
| 1777428463 | 13.33° C | 82% | 1008.9 hPa | 0 mm | - | 0 W/m² | - |
| 1777425115 | 13.33° C | 81% | 1008.6 hPa | 0 mm | - | 0 W/m² | - |
| 1777422377 | 14.44° C | 78% | 1008 hPa | 0 mm | - | 0 W/m² | - |
* Rain latest hour (hover to see other rain measurements)
** Current wind speed in m/s (hover to see current wind gust speed)